Weather History for Marathon, FL

Change the Weather History Date:

Saturday, July 13, 2013

  Actual Average Record
Temperature  
Mean Temperature 84 °F 85 °F  
Max Temperature 92 °F 91 °F 92 °F (2013)
Min Temperature 75 °F 79 °F 73 °F (1999)
Degree Days  
Heating Degree Days 0 0  
Month to date heating degree days 0 0  
Since 1 June heating degree days 0 0  
Since 1 July heating degree days 0 0  
Cooling Degree Days 19 20  
Month to date cooling degree days 263 260  
Year to date cooling degree days 2709 2397  
Since 1 June cooling degree days 879 854  
Growing Degree Days 33 (Base 50)    
Moisture  
Dew Point 72 °F    
Average Humidity 64    
Maximum Humidity 69    
Minimum Humidity 59    
Precipitation  
Precipitation 0.47 in 0.11 in 0.68 in (2006)
Month to date precipitation 2.41 1.68  
Year to date precipitation 31.42 19.23  
Snow  
Snow 0.00 in - - ()
Month to date snowfall 0.0  
Since 1 June snowfall 0.0  
Since 1 July snowfall 0.0  
Snow Depth 0.00 in    
Sea Level Pressure  
Sea Level Pressure 29.98 in    
Wind  
Wind Speed 8 mph (South)    
Max Wind Speed 16 mph    
Max Gust Speed 25 mph    
Visibility 8 miles    
Events Rain , Thunderstorm    
T = Trace of Precipitation, MM = Missing Value Source: NWS Daily Summary

Daily Weather History Graph

Daily Weather History Graph

Search for Another Location

Airport:

Trip Planner

Search our weather history database for the weather conditions in past years. The results will help you decide how hot, cold, wet, or windy it might be!

Date:

Astronomy

Jul. 13, 2013 Rise Set
Actual Time 6:43 AM EDT 8:16 PM EDT
Civil Twilight 6:18 AM EDT 8:41 PM EDT
Nautical Twilight 5:48 AM EDT 9:11 PM EDT
Astronomical Twilight 5:16 AM EDT 9:43 PM EDT
Moon 11:20 AM EDT (7/13) 11:37 PM EDT (7/13)
Length of Visible Light 14h 23m
Length of Day
13h 32m
Waxing Crescent, 25% of the Moon is Illuminated
Jul 13
Waxing Crescent
Jul 15
First Quarter
Jul 22
Full
Jul 29
Last Quarter
Aug 6
New

Hourly Weather History & Observations

Time (EDT) Temp. Heat Index Dew Point Humidity Pressure Visibility Wind Dir Wind Speed Gust Speed Precip Events Conditions
12:53 AM 84.0 °F 89.6 °F 72.0 °F 67% 29.96 in 10.0 mi South 6.9 mph - N/A   Scattered Clouds
1:53 AM 82.9 °F 88.0 °F 72.0 °F 69% 29.95 in 10.0 mi SSW 6.9 mph - N/A   Partly Cloudy
2:53 AM 82.9 °F 88.0 °F 72.0 °F 69% 29.94 in 10.0 mi SSW 8.1 mph - N/A   Clear
3:53 AM 82.9 °F 88.0 °F 72.0 °F 69% 29.93 in 10.0 mi South 8.1 mph - N/A   Clear
4:53 AM 82.9 °F 88.0 °F 72.0 °F 69% 29.93 in 10.0 mi South 6.9 mph - N/A   Partly Cloudy
5:53 AM 82.9 °F 88.0 °F 72.0 °F 69% 29.94 in 10.0 mi South 6.9 mph - N/A   Scattered Clouds
6:37 AM 82.4 °F 87.2 °F 71.6 °F 70% 29.95 in 10.0 mi South 9.2 mph 18.4 mph N/A   Mostly Cloudy
6:53 AM 82.9 °F 87.5 °F 71.1 °F 67% 29.95 in 10.0 mi South 9.2 mph 18.4 mph N/A   Scattered Clouds
7:32 AM 82.4 °F 87.2 °F 71.6 °F 70% 29.95 in 10.0 mi SSW 10.4 mph 18.4 mph N/A   Mostly Cloudy
7:44 AM 84.2 °F 89.6 °F 71.6 °F 66% 29.95 in 10.0 mi South 9.2 mph 17.3 mph N/A   Scattered Clouds
7:53 AM 84.0 °F 89.0 °F 71.1 °F 65% 29.95 in 10.0 mi South 9.2 mph - N/A   Scattered Clouds
8:53 AM 86.0 °F 91.5 °F 71.1 °F 61% 29.97 in 10.0 mi South 9.2 mph 19.6 mph N/A   Clear
9:49 AM 87.8 °F 93.8 °F 71.6 °F 58% 29.98 in 10.0 mi South 11.5 mph 18.4 mph N/A   Mostly Cloudy
9:53 AM 88.0 °F 94.7 °F 72.0 °F 59% 29.98 in 10.0 mi South 9.2 mph 18.4 mph N/A   Mostly Cloudy
10:07 AM 87.8 °F 93.8 °F 71.6 °F 58% 29.99 in 10.0 mi South 8.1 mph 16.1 mph N/A   Scattered Clouds
10:53 AM 88.0 °F 95.6 °F 73.0 °F 61% 29.99 in 10.0 mi South 8.1 mph - N/A   Mostly Cloudy
11:53 AM 89.1 °F 97.0 °F 73.0 °F 59% 29.99 in 10.0 mi South 9.2 mph 18.4 mph N/A   Partly Cloudy
12:53 PM 90.0 °F 97.9 °F 73.0 °F 57% 29.99 in 10.0 mi South 8.1 mph 16.1 mph N/A   Clear
1:53 PM 89.1 °F 98.0 °F 73.9 °F 61% 29.99 in 10.0 mi SSW 6.9 mph - N/A   Scattered Clouds
2:53 PM 91.9 °F 103.2 °F 75.0 °F 58% 29.97 in 10.0 mi Variable 6.9 mph - N/A   Partly Cloudy
3:53 PM 90.0 °F 99.0 °F 73.9 °F 59% 29.97 in 10.0 mi South 6.9 mph - N/A   Mostly Cloudy
4:53 PM 88.0 °F 96.5 °F 73.9 °F 63% 29.95 in 10.0 mi South 6.9 mph - N/A   Scattered Clouds
5:12 PM 87.8 °F 93.8 °F 71.6 °F 58% 29.95 in 10.0 mi South 10.4 mph 19.6 mph N/A Thunderstorm Clear
5:40 PM 87.8 °F 93.8 °F 71.6 °F 58% 29.95 in 10.0 mi SSE 9.2 mph 18.4 mph N/A   Scattered Clouds
5:51 PM 87.8 °F 95.6 °F 73.4 °F 62% 29.96 in 8.0 mi South 11.5 mph 16.1 mph 0.00 in Rain , Thunderstorm Light Rain
5:53 PM 86.0 °F 95.1 °F 75.0 °F 70% 29.96 in 4.0 mi South 12.7 mph 20.7 mph 0.01 in Rain , Thunderstorm Light Rain
6:00 PM 82.4 °F 87.2 °F 71.6 °F 70% 29.96 in 3.0 mi South 15.0 mph 24.2 mph 0.01 in Rain Light Rain
6:53 PM 84.0 °F 91.2 °F 73.9 °F 72% 29.96 in 10.0 mi South 10.4 mph 20.7 mph 0.03 in   Mostly Cloudy
7:53 PM 84.0 °F 89.0 °F 71.1 °F 65% 29.97 in 10.0 mi South 6.9 mph - N/A   Clear
8:53 PM 84.0 °F 89.0 °F 71.1 °F 65% 29.97 in 10.0 mi SSW 4.6 mph - N/A   Mostly Cloudy
9:51 PM 84.2 °F 89.6 °F 71.6 °F 66% 30.01 in 10.0 mi SSE 4.6 mph - N/A Thunderstorm Mostly Cloudy
9:53 PM 84.0 °F 89.6 °F 72.0 °F 67% 30.01 in 10.0 mi SSE 5.8 mph - N/A Thunderstorm Mostly Cloudy
10:26 PM 77.0 °F - 69.8 °F 78% 30.02 in 2.5 mi West 11.5 mph 19.6 mph 0.07 in Rain , Thunderstorm Light Thunderstorms and Rain
10:34 PM 77.0 °F - 69.8 °F 78% 30.03 in 6.0 mi WSW 10.4 mph 18.4 mph 0.08 in Rain , Thunderstorm Light Thunderstorms and Rain
10:43 PM 75.2 °F - 69.8 °F 83% 30.03 in 1.8 mi SW 6.9 mph - 0.14 in Rain , Thunderstorm Heavy Thunderstorms and Rain
10:53 PM 75.9 °F - 71.1 °F 85% 30.04 in 1.5 mi South 12.7 mph 19.6 mph 0.22 in Rain , Thunderstorm Thunderstorms and Rain
11:11 PM 75.2 °F - 71.6 °F 89% 30.03 in 2.0 mi SE 4.6 mph - 0.17 in Rain Heavy Rain
11:22 PM 75.2 °F - 69.8 °F 83% 30.03 in 5.0 mi SE 3.5 mph - 0.18 in Rain Light Rain
11:39 PM 75.2 °F - 69.8 °F 83% 30.03 in 8.0 mi ESE 5.8 mph - 0.20 in Rain , Thunderstorm Light Thunderstorms and Rain
11:53 PM 77.0 °F - 70.0 °F 79% 30.03 in 10.0 mi Calm Calm - 0.21 in Rain Light Rain